Home > Weather > Salem > Past weeks

Flag for USA Past Weather in Salem, Oregon, USA — Yesterday and Last 2 Weeks

Now
70 °F

Sunny.


Feels Like: 77 °F
Forecast: 45 / 71 °F
Wind: 3 mph from North

Location: McNary Field

Current Time: May 28, 2016 at 3:13:05 PM

Latest Report: May 28, 2016 at 2:56 PM


Visibility: 10 mi

Pressure: 30.03 "Hg

Humidity: 35%

Dew Point: 41 °F

Location of SalemLocation

Past Weather in Salem — Graph

°F

Salem Temperature Yesterday

Maximum temperature yesterday: 65 °F (at 4:56 PM)
Minimum temperature yesterday: 50 °F (at 3:56 AM)
Average temperature yesterday: 56 °F

High & Low Weather Summary for the Past Weeks

 TemperatureHumidityPressure
High81 °F (May 13, 3:56 PM)93% (May 14, 11:00 AM)30.26 "Hg (May 14, 11:00 AM)
Low42 °F (May 28, 3:56 AM)35% (May 13, 1:56 PM)29.74 "Hg (May 20, 6:56 PM)
Average57 °F71%30.04 "Hg
* Reported May 13 12:56 PM — May 28 12:56 PM, Salem, Weather by CustomWeather, © 2016

Note: Actual official high and low records may vary slightly from our data, if they occured in-between our weather recording intervals... More about our weather records

Advertising

Salem Weather History for the Previous 24 Hours

Scroll right to see more
 ConditionsComfort  
Time TempWeatherWind HumidityBarometerVisibility
12:56 PM
Sat, May 28
67 °FSunny.5 mph35%30.08 "Hg10 mi
11:56 AM65 °FSunny.3 mph40%30.09 "Hg10 mi
10:56 AM62 °FSunny.3 mph52%30.10 "Hg10 mi
9:56 AM58 °FSunny.No wind60%30.12 "Hg10 mi
8:56 AM54 °FSunny.5 mph67%30.13 "Hg10 mi
7:56 AM51 °FSunny.7 mph74%30.13 "Hg10 mi
6:56 AM46 °FSunny.No wind86%30.14 "Hg10 mi
5:56 AM43 °FClear.No wind86%30.14 "Hg10 mi
4:56 AM42 °FClear.No wind89%30.15 "Hg10 mi
3:56 AM42 °FClear.3 mph89%30.14 "Hg10 mi
2:56 AM43 °FClear.No wind86%30.15 "Hg10 mi
1:56 AM46 °FClear.No wind79%30.17 "Hg10 mi
12:56 AM47 °FClear.No wind80%30.17 "Hg10 mi
11:56 PM
Fri, May 27
51 °FClear.3 mph69%30.18 "Hg10 mi
10:56 PM52 °FClear.6 mph66%30.18 "Hg10 mi
9:56 PM53 °FClear.8 mph64%30.18 "Hg10 mi
8:56 PM55 °FSunny.8 mph59%30.17 "Hg10 mi
7:56 PM58 °FScattered clouds.14 mph54%30.16 "Hg10 mi
6:56 PM60 °FPartly sunny.12 mph46%30.15 "Hg10 mi
5:56 PM61 °FSunny.15 mph46%30.15 "Hg10 mi
4:56 PM65 °FPartly sunny.16 mph40%30.15 "Hg10 mi
3:56 PM63 °FBroken clouds.8 mph45%30.16 "Hg10 mi
Weather by CustomWeather, © 2016

See weather overviewHow to use our weather pages